This is the latest recevied weather packets stored in our database for station/object KD9YTS-13. If no packets are shown the sender has not sent any weather packets the latest 10 day(s).
| Time | Temp. | Humidity | Pressure | Rain* | Wind** | Luminosity | Snow |
|---|---|---|---|---|---|---|---|
| 1777538183 | -17.78° C | 100% | - | 0 mm | - | - | - |
| 1777536983 | -17.78° C | 100% | - | 0 mm | - | - | - |
| 1777535783 | -17.78° C | 100% | - | 0 mm | - | - | - |
| 1777534582 | 1.11° C | 8% | - | 0 mm | - | - | - |
| 1777533383 | 1.11° C | 8% | - | 0 mm | - | - | - |
| 1777532183 | -17.78° C | 100% | - | 0 mm | - | - | - |
| 1777530983 | -17.78° C | 100% | - | 0 mm | - | - | - |
| 1777529783 | 1.11° C | 7% | - | 0 mm | - | - | - |
| 1777528583 | 1.67° C | 7% | - | 0 mm | - | - | - |
| 1777527382 | -17.78° C | 100% | - | 0 mm | - | - | - |
| 1777526182 | -17.78° C | 100% | - | 0 mm | - | - | - |
| 1777524982 | -17.78° C | 100% | - | 0 mm | - | - | - |
| 1777523784 | 3.89° C | 6% | - | 0 mm | - | - | - |
| 1777522583 | 4.44° C | 6% | - | 0 mm | - | - | - |
| 1777521382 | -17.78° C | 100% | - | 0 mm | - | - | - |
| 1777520183 | -17.78° C | 100% | - | 0 mm | - | - | - |
| 1777518983 | -17.78° C | 100% | - | 0 mm | - | - | - |
| 1777517782 | -17.78° C | 100% | - | 0 mm | - | - | - |
| 1777516583 | 5° C | 6% | - | 0 mm | - | - | - |
| 1777515382 | -17.78° C | 100% | - | 0 mm | - | - | - |
| 1777514182 | -17.78° C | 100% | - | 0 mm | - | - | - |
| 1777512983 | -17.78° C | 100% | - | 0 mm | - | - | - |
| 1777511782 | 7.78° C | 4% | - | 0 mm | - | - | - |
| 1777510582 | 8.33° C | 4% | - | 0 mm | - | - | - |
| 1777509382 | -17.78° C | 100% | - | 0 mm | - | - | - |
* Rain latest hour (hover to see other rain measurements)
** Current wind speed in m/s (hover to see current wind gust speed)